This is the latest recevied weather packets stored in our database for station/object W4JCW. If no packets are shown the sender has not sent any weather packets the latest 10 day(s).
| Time | Temp. | Humidity | Pressure | Rain* | Wind** | Luminosity | Snow |
|---|---|---|---|---|---|---|---|
| 1777487212 | 25.56° C | 61% | 1009.5 hPa | 0 mm | - | 319 W/m² | - |
| 1777486908 | 25.56° C | 61% | 1009.8 hPa | 0 mm | - | 283 W/m² | - |
| 1777486605 | 25.56° C | 61% | 1010 hPa | 0 mm | - | 239 W/m² | - |
| 1777486303 | 26.11° C | 59% | 1009.8 hPa | 0 mm | - | 257 W/m² | - |
| 1777486000 | 26.11° C | 57% | 1009.6 hPa | 0 mm | - | 621 W/m² | - |
| 1777485697 | 26.11° C | 59% | 1009.9 hPa | 0 mm | - | 877 W/m² | - |
| 1777485392 | 25.56° C | 60% | 1009.9 hPa | 0 mm | - | 591 W/m² | - |
| 1777485088 | 25.56° C | 61% | 1009.9 hPa | 0 mm | - | 449 W/m² | - |
| 1777484786 | 25.56° C | 61% | 1010 hPa | 0 mm | - | 774 W/m² | - |
| 1777484481 | 25.56° C | 60% | 1010 hPa | 0 mm | - | 396 W/m² | - |
| 1777484180 | 25.56° C | 60% | 1010.4 hPa | 0 mm | - | 293 W/m² | - |
| 1777483880 | 25° C | 62% | 1010.4 hPa | 0 mm | - | 327 W/m² | - |
| 1777483577 | 25° C | 61% | 1010.4 hPa | 0 mm | - | 191 W/m² | - |
| 1777483277 | 25° C | 62% | 1010.3 hPa | 0 mm | - | 217 W/m² | - |
| 1777482973 | 25° C | 62% | 1010.5 hPa | 0 mm | - | 261 W/m² | - |
| 1777482669 | 25° C | 66% | 1010.4 hPa | 0 mm | - | 540 W/m² | - |
| 1777482366 | 24.44° C | 64% | 1010.8 hPa | 0 mm | - | 285 W/m² | - |
| 1777482064 | 25° C | 63% | 1010.7 hPa | 0 mm | - | 352 W/m² | - |
| 1777481762 | 25° C | 63% | 1010.8 hPa | 0 mm | - | 258 W/m² | - |
| 1777481459 | 24.44° C | 64% | 1010.8 hPa | 0 mm | - | 818 W/m² | - |
| 1777481154 | 24.44° C | 67% | 1010.9 hPa | 0 mm | - | 285 W/m² | - |
| 1777480851 | 23.89° C | 68% | 1010.9 hPa | 0 mm | - | 154 W/m² | - |
| 1777480548 | 23.89° C | 68% | 1011 hPa | 0 mm | - | 251 W/m² | - |
| 1777480245 | 23.89° C | 68% | 1010.9 hPa | 0 mm | - | 243 W/m² | - |
| 1777479941 | 23.89° C | 68% | 1011.2 hPa | 0 mm | - | 261 W/m² | - |
* Rain latest hour (hover to see other rain measurements)
** Current wind speed in m/s (hover to see current wind gust speed)